Regional Weather Roundup
Issued by NWS Charleston, SC

Current Version | Previous Version | Text Only | Print | Product List | Glossary Off
Versions: 1 2 3 4 5 6 7 8 9 10 11 12 13 14 15 16 17 18 19 20 21 22 23 24 25 26 27 28 29 30 31 32 33 34 35 36 37 38 39 40 41 42 43 44 45 46 47 48 49 50

000
ASUS42 KCHS 270426
RWRCHS

REGIONAL WEATHER ROUNDUP
NATIONAL WEATHER SERVICE CHARLESTON SC
1100 PM EST THU FEB 26 2015

NOTE: "FAIR" INDICATES FEW OR NO CLOUDS BELOW 12,000 FEET WITH NO
SIGNIFICANT WEATHER AND/OR OBSTRUCTIONS TO VISIBILITY.

NOT ALL STATIONS ARE QUALITY CONTROLLED BY THE NATIONAL
WEATHER SERVICE. USE DATA WITH CAUTION...ESPECIALLY
DEWPOINT OBSERVATIONS.

SCZ027-030-031-034>040-042>050-270500-
...SOUTHEAST SOUTH CAROLINA...

CITY           SKY/WX    TMP DP  RH WIND       PRES   REMARKS
N CHARLESTON   CLOUDY    41  35  79 NE5       30.16R
WATERFRONT PRK   N/A     41 N/A N/A N8          N/A
MOUNT PLEASANT LGT RAIN  41  37  87 N3        30.17R
PINOPOLIS        N/A     43  36  75 NE7       30.07R
MONCKS CORNER  MOCLDY    41  36  81 NE5       30.16S
SUMMERVILLE    NOT AVBL
BEAUFORT MCAS  CLOUDY    41  36  82 NE3       30.16R
BEAUFORT ARPT  FAIR      41  37  87 CALM      30.16R
HILTON HEAD IS CLOUDY    43  37  81 N6        30.18R
WALTERBORO     CLOUDY    37  37 100 CALM      30.16S
ALLENDALE      CLOUDY    43  39  87 CALM      30.15S

...SOUTHERN MIDLANDS AND PEE DEE...

CITY           SKY/WX    TMP DP  RH WIND       PRES   REMARKS
GEORGETOWN     NOT AVBL
KINGSTREE      NOT AVBL
ORANGEBURG     CLOUDY    37  34  89 CALM      30.16R
BARNWELL         N/A     43  39  87 NE3       30.16S
AIKEN          CLOUDY    41  41 100 CALM      30.18R
MANNING        FAIR     N/A N/A N/A NE3       30.17R
COLUMBIA       PTCLDY    36  34  92 CALM      30.17R
SUMTER         NOT AVBL
FLORENCE       MOCLDY    36  31  82 N5        30.17R WCI  32
MYRTLE BEACH   CLOUDY    37  34  87 N5        30.18R WCI  34
N MYRTLE BEACH CLOUDY    38  33  82 N5        30.15R WCI  34

$$

GAZ063-065-086>088-099>101-113>116-118-119-134>141-150-270500-
...SOUTHEAST GEORGIA...

CITY           SKY/WX    TMP DP  RH WIND       PRES   REMARKS
SAVANNAH ARPT  CLOUDY    44  36  73 NE5       30.16R
HUNTER AAF     NOT AVBL
FORT STEWART   NOT AVBL
STATESBORO     CLOUDY    44  40  87 CALM      30.14S
SYLVANIA       CLOUDY    43  41  92 CALM      30.16R
CLAXTON        FAIR      39  39 100 CALM      30.15S

...CSRA...CENTRAL AND FAR SOUTHEAST GEORGIA...

CITY           SKY/WX    TMP DP  RH WIND       PRES   REMARKS
THOMSON        CLOUDY    42  41  96 CALM      30.19S
AUGUSTA-BUSH   CLOUDY    42  39  89 E3        30.16R
AUGUSTA-DANIEL CLOUDY    45  37  73 NE3       30.15R
SWAINSBORO     CLOUDY    45  45 100 CALM      30.16R
VIDALIA        CLOUDY    45  43  93 CALM      30.15S
EASTMAN        CLOUDY    44  39  83 N8        30.17R
HAZLEHURST     CLOUDY    45  45 100 CALM      30.14S
ALMA           CLOUDY    41  39  93 CALM      30.15R
WAYCROSS       CLOUDY    46  44  95 CALM      30.15S
JESUP          MOCLDY    45  43  93 CALM      30.16R
BAXLEY         CLOUDY    43  43 100 CALM      30.14S
BRUNSWICK      CLOUDY    46  39  76 CALM      30.15S
SAINT SIMONS   CLOUDY    47  39  74 N7        30.14R

$$

SCZ027-028-034-036>038-045-046-048>050-GAZ119-141-270500-
...LAKE AND SUPPLEMENTAL COASTAL OBSERVATIONS...

STATION/POSITION TIME  TEMP    WIND        PRES    WAVE   SWELL
                       AIR SEA DIR/SP/G            HT/PER HT/PER/DIR
                 (UTC) (F)     (DEG/KT/KT) (MB)    (FT/S) (FT/S/D)
UPR LAKE MARION  NOT AVBL
WINYAH BAY       0345   39      10/  2     1020.0R
LAKE MURRAY      0300   40      90/  5/  7 1020.3R
ACE BASIN NERRS  NOT AVBL
FORT PULASKI     0300   45 49   20/  8/ 10 1021.1R
SAPELO ISLAND    0400   47      20/  6     1021.0R

$$

ANZ835-935-AMZ111-154-330-350-352-354-370-450-454-472-270500-
...C-MAN AND BUOY OBSERVATIONS...

STATION/POSITION TIME  TEMP    WIND        PRES    WAVE   SWELL
                       AIR SEA DIR/SP/G            HT/PER HT/PER/DIR
                 (UTC) (F)     (DEG/KT/KT) (MB)    (FT/S) (FT/S/D)
BUOY 41004       0350   45 65   20/ 12/ 17 1020.1R   5/ 9   5/ 9
BUOY 41008       0350   48 52   40/ 14/ 16 1020.4R   3/10   2/110/10
FOLLY BEACH CMAN 0400   42     360/  8/ 10 1021.6R
CAPERS NEARSHORE NOT AVBL
FRIPP NEARSHORE  0300   44      30/ 12/ 16 1020.3R


STATION/POSITION TIME  TEMP    WIND        PRES    WAVE   SWELL
                       AIR SEA DIR/SP/G            HT/PER HT/PER/DIR
                 (UTC) (F)     (DEG/KT/KT) (MB)    (FT/S) (FT/S/D)
5E ST. MARYS GA  0321      54                N/A     3/10   2/110/11
FRYING PAN BUOY  0350   42 60   10/ 16/ 19 1020.6R   6/10   5/180/10
BUOY 41025       NOT AVBL
CAPE LOOKOUT NC  0400   36     350/ 13/ 16 1019.7R
BUOY 41002       0350   62 70  310/ 14/ 17 1016.5R  10/10   8/210/10
BUOY 41010       0320   65 74  360/ 14/ 16 1016.7R
ST AUGUSTINE FL  0400   50      10/ 20/ 21 1020.3R


$$


USA.gov is the U.S. government's official web portal to all federal, state and local government web resources and services.